カタログに戻る

PROPCUBE 1

運用中科学LEO
NORAD 40976·PAYLOAD·🇺🇸 United States

打ち上げ Oct 8, 2015 から Vandenberg Space Force Base

Loading…

次のパス (今後24時間)

TLE

最新Source: Space-Track

元期: Sep 13, 2026, 16:36 UTC

1 40976U 15058N   26256.69222940  .00001230  00000-0  12327-3 0  9994
2 40976  64.7748  20.8417 0137881  27.6254 333.2095 14.89603861129441

AllMySatでPROPCUBE 1をリアルタイム追跡

Download on the App Store